START_TIME,STEP,MOV.,M6,t_acc.,M7,t_acc.,M19,t_acc.,H36,t_acc.
1979-03-04 15:13:28.610 ,0,0,98.,12.0,0.,12.0,0.,12.0,160.,12.0
1979-03-04 15:13:40.610 ,0,0,102.,12.0,2.,12.0,0.,12.0,160.,12.0
1979-03-04 15:13:52.610 ,5,1,112.,12.0,0.,12.0,0.,12.0,172.,12.0
1979-03-04 15:14:04.610 ,5,1,136.,12.0,0.,12.0,0.,12.0,160.,12.0
1979-03-04 15:14:16.610 ,6,1,128.,12.0,0.,12.0,0.,12.0,176.,12.0
1979-03-04 15:14:28.610 ,6,1,144.,12.0,0.,12.0,0.,12.0,184.,12.0
1979-03-04 15:14:40.610 ,7,1,132.,12.0,0.,12.0,0.,12.0,212.,12.0
1979-03-04 15:14:52.610 ,7,1,15.,12.0,0.,12.0,0.,12.0,29.,12.0
1979-03-04 15:15:04.610 ,7,1,0.,12.0,0.,12.0,0.,12.0,0.,12.0
1979-03-04 15:15:16.610 ,7,1,0.,12.0,0.,12.0,0.,12.0,0.,12.0
1979-03-04 15:15:28.610 ,6,1,0.,12.0,0.,12.0,0.,12.0,0.,12.0
1979-03-04 15:15:40.610 ,6,1,112.,12.0,0.,12.0,0.,12.0,164.,12.0
1979-03-04 15:15:52.610 ,5,1,114.,12.0,0.,12.0,0.,12.0,188.,12.0
1979-03-04 15:16:04.610 ,5,1,118.,12.0,0.,12.0,0.,12.0,164.,12.0
1979-03-04 15:16:16.610 ,4,1,106.,12.0,0.,12.0,0.,12.0,180.,12.0
1979-03-04 15:16:28.610 ,4,1,114.,12.0,0.,12.0,0.,12.0,136.,12.0
1979-03-04 15:16:40.610 ,3,1,80.,12.0,0.,12.0,0.,12.0,148.,12.0
1979-03-04 15:16:52.610 ,3,1,63.,12.0,0.,12.0,0.,12.0,102.,12.0
1979-03-04 15:17:04.610 ,2,1,57.,12.0,0.,12.0,0.,12.0,106.,12.0
1979-03-04 15:17:16.610 ,2,1,49.,12.0,0.,12.0,0.,12.0,80.,12.0
1979-03-04 15:17:28.610 ,1,1,54.,12.0,0.,12.0,0.,12.0,84.,12.0
1979-03-04 15:17:40.610 ,1,1,76.,12.0,0.,12.0,0.,12.0,122.,12.0
1979-03-04 15:17:52.610 ,0,1,55.,12.0,0.,12.0,0.,12.0,112.,12.0
1979-03-04 15:18:04.610 ,0,1,86.,12.0,0.,12.0,0.,12.0,116.,12.0
1979-03-04 15:18:16.610 ,0,1,80.,12.0,0.,12.0,0.,12.0,124.,12.0
1979-03-04 15:18:28.610 ,0,1,98.,12.0,0.,12.0,0.,12.0,114.,12.0
1979-03-04 15:18:40.610 ,1,1,84.,12.0,0.,12.0,0.,12.0,144.,12.0
1979-03-04 15:18:52.610 ,1,1,63.,12.0,0.,12.0,0.,12.0,112.,12.0
1979-03-04 15:19:04.610 ,2,1,82.,12.0,0.,12.0,0.,12.0,122.,12.0
1979-03-04 15:19:16.610 ,2,1,72.,12.0,0.,12.0,0.,12.0,106.,12.0
1979-03-04 15:19:28.610 ,3,1,70.,12.0,0.,12.0,0.,12.0,128.,12.0
1979-03-04 15:19:40.610 ,3,1,80.,12.0,0.,12.0,0.,12.0,128.,12.0
1979-03-04 15:19:52.610 ,4,1,86.,12.0,0.,12.0,0.,12.0,104.,12.0
1979-03-04 15:20:04.610 ,4,1,94.,12.0,0.,12.0,0.,12.0,128.,12.0
1979-03-04 15:20:16.610 ,5,1,108.,12.0,0.,12.0,0.,12.0,148.,12.0
1979-03-04 15:20:28.610 ,5,1,132.,12.0,0.,12.0,0.,12.0,172.,12.0
1979-03-04 15:20:40.610 ,6,1,128.,12.0,1.,12.0,0.,12.0,192.,12.0
1979-03-04 15:20:52.610 ,6,1,156.,12.0,0.,12.0,0.,12.0,212.,12.0
1979-03-04 15:21:04.610 ,7,1,148.,12.0,0.,12.0,0.,12.0,232.,12.0
1979-03-04 15:21:16.610 ,7,1,14.,12.0,0.,12.0,0.,12.0,37.,12.0
1979-03-04 15:21:28.610 ,7,1,0.,12.0,0.,12.0,0.,12.0,0.,12.0
1979-03-04 15:21:40.610 ,7,1,0.,12.0,0.,12.0,0.,12.0,0.,12.0
1979-03-04 15:21:52.610 ,6,1,0.,12.0,0.,12.0,0.,12.0,0.,12.0
1979-03-04 15:22:04.610 ,6,1,140.,12.0,0.,12.0,0.,12.0,220.,12.0
1979-03-04 15:22:16.610 ,5,1,172.,12.0,0.,12.0,0.,12.0,256.,12.0
1979-03-04 15:22:28.610 ,5,1,176.,12.0,0.,12.0,0.,12.0,236.,12.0
1979-03-04 15:22:40.610 ,4,1,168.,12.0,0.,12.0,0.,12.0,240.,12.0
1979-03-04 15:22:52.610 ,4,1,156.,12.0,1.,12.0,0.,12.0,216.,12.0
1979-03-04 15:23:04.610 ,0,0,148.,12.0,0.,12.0,0.,12.0,192.,12.0
1979-03-04 15:23:16.610 ,0,0,106.,12.0,1.,12.0,0.,12.0,148.,12.0
1979-03-04 15:23:28.610 ,2,1,112.,12.0,1.,12.0,0.,12.0,160.,12.0
1979-03-04 15:23:40.610 ,2,1,94.,12.0,0.,12.0,0.,12.0,122.,12.0
1979-03-04 15:23:52.610 ,1,1,76.,12.0,0.,12.0,0.,12.0,140.,12.0
1979-03-04 15:24:04.610 ,1,1,76.,12.0,0.,12.0,0.,12.0,124.,12.0
1979-03-04 15:24:16.610 ,0,1,59.,12.0,0.,12.0,0.,12.0,132.,12.0
1979-03-04 15:24:28.610 ,0,1,98.,12.0,0.,12.0,0.,12.0,156.,12.0
1979-03-04 15:24:40.610 ,0,1,98.,12.0,0.,12.0,0.,12.0,160.,12.0
1979-03-04 15:24:52.610 ,0,1,116.,12.0,0.,12.0,0.,12.0,156.,12.0
1979-03-04 15:25:04.610 ,1,1,84.,12.0,0.,12.0,0.,12.0,152.,12.0
1979-03-04 15:25:16.610 ,1,1,80.,12.0,0.,12.0,0.,12.0,132.,12.0
1979-03-04 15:25:28.610 ,2,1,80.,12.0,0.,12.0,0.,12.0,114.,12.0
1979-03-04 15:25:40.610 ,2,1,70.,12.0,0.,12.0,0.,12.0,114.,12.0
1979-03-04 15:25:52.610 ,3,1,64.,12.0,0.,12.0,0.,12.0,110.,12.0
1979-03-04 15:26:04.610 ,3,1,78.,12.0,0.,12.0,0.,12.0,136.,12.0
1979-03-04 15:26:16.610 ,4,1,78.,12.0,0.,12.0,0.,12.0,122.,12.0
1979-03-04 15:26:28.610 ,4,1,152.,12.0,0.,12.0,0.,12.0,176.,12.0
1979-03-04 15:26:40.610 ,5,1,128.,12.0,0.,12.0,0.,12.0,184.,12.0
1979-03-04 15:26:52.610 ,5,1,164.,12.0,0.,12.0,0.,12.0,240.,12.0
1979-03-04 15:27:04.610 ,6,1,188.,12.0,0.,12.0,0.,12.0,236.,12.0
1979-03-04 15:27:16.610 ,6,1,188.,12.0,0.,12.0,0.,12.0,256.,12.0
1979-03-04 15:27:28.610 ,7,1,184.,12.0,0.,12.0,0.,12.0,244.,12.0
1979-03-04 15:27:40.610 ,7,1,29.,12.0,0.,12.0,0.,12.0,39.,12.0
1979-03-04 15:27:52.610 ,7,1,0.,12.0,0.,12.0,0.,12.0,0.,12.0
1979-03-04 15:28:04.610 ,7,1,0.,12.0,0.,12.0,0.,12.0,0.,12.0
1979-03-04 15:28:16.610 ,6,1,0.,12.0,0.,12.0,0.,12.0,0.,12.0
1979-03-04 15:28:28.610 ,6,1,126.,12.0,0.,12.0,0.,12.0,220.,12.0
1979-03-04 15:28:40.610 ,5,1,144.,12.0,0.,12.0,0.,12.0,236.,12.0
1979-03-04 15:28:52.610 ,5,1,168.,12.0,0.,12.0,0.,12.0,244.,12.0
1979-03-04 15:29:04.610 ,4,1,172.,12.0,0.,12.0,0.,12.0,228.,12.0
1979-03-04 15:29:16.610 ,4,1,148.,12.0,0.,12.0,0.,12.0,180.,12.0
1979-03-04 15:29:28.610 ,3,1,140.,12.0,0.,12.0,0.,12.0,172.,12.0
1979-03-04 15:29:40.610 ,3,1,96.,12.0,0.,12.0,0.,12.0,152.,12.0
1979-03-04 15:29:52.610 ,2,1,100.,12.0,0.,12.0,0.,12.0,140.,12.0
1979-03-04 15:30:04.610 ,2,1,74.,12.0,0.,12.0,0.,12.0,140.,12.0
1979-03-04 15:30:16.610 ,1,1,63.,12.0,0.,12.0,0.,12.0,128.,12.0
1979-03-04 15:30:28.610 ,1,1,72.,12.0,0.,12.0,0.,12.0,114.,12.0
1979-03-04 15:30:40.610 ,0,1,64.,12.0,0.,12.0,0.,12.0,94.,12.0
1979-03-04 15:30:52.610 ,0,1,90.,12.0,0.,12.0,0.,12.0,136.,12.0
1979-03-04 15:31:04.610 ,0,1,92.,12.0,0.,12.0,0.,12.0,120.,12.0
1979-03-04 15:31:16.610 ,0,1,88.,12.0,0.,12.0,0.,12.0,140.,12.0
1979-03-04 15:31:28.610 ,1,1,76.,12.0,0.,12.0,0.,12.0,132.,12.0
1979-03-04 15:31:40.610 ,1,1,56.,12.0,0.,12.0,0.,12.0,126.,12.0
1979-03-04 15:31:52.610 ,2,1,58.,12.0,0.,12.0,0.,12.0,116.,12.0
1979-03-04 15:32:04.610 ,2,1,64.,12.0,0.,12.0,0.,12.0,118.,12.0
1979-03-04 15:32:16.610 ,3,1,70.,12.0,0.,12.0,0.,12.0,110.,12.0
1979-03-04 15:32:28.610 ,3,1,78.,12.0,0.,12.0,0.,12.0,148.,12.0
1979-03-04 15:32:40.610 ,4,1,72.,12.0,0.,12.0,0.,12.0,122.,12.0
1979-03-04 15:32:52.610 ,4,1,92.,12.0,0.,12.0,0.,12.0,164.,12.0
1979-03-04 15:33:04.610 ,5,1,112.,12.0,0.,12.0,0.,12.0,160.,12.0
1979-03-04 15:33:16.610 ,5,1,144.,12.0,0.,12.0,0.,12.0,188.,12.0
1979-03-04 15:33:28.610 ,6,1,156.,12.0,0.,12.0,0.,12.0,176.,12.0
1979-03-04 15:33:40.610 ,6,1,136.,12.0,2.,12.0,0.,12.0,220.,12.0
1979-03-04 15:33:52.610 ,7,1,148.,12.0,0.,12.0,0.,12.0,240.,12.0
1979-03-04 15:34:04.610 ,7,1,21.,12.0,0.,12.0,0.,12.0,33.,12.0
1979-03-04 15:34:16.610 ,7,1,0.,12.0,0.,12.0,0.,12.0,0.,12.0
1979-03-04 15:34:28.610 ,7,1,0.,12.0,0.,12.0,0.,12.0,0.,12.0
1979-03-04 15:34:40.610 ,6,1,0.,12.0,0.,12.0,0.,12.0,0.,12.0
1979-03-04 15:34:52.610 ,6,1,132.,12.0,0.,12.0,0.,12.0,228.,12.0
1979-03-04 15:35:04.610 ,5,1,164.,12.0,0.,12.0,0.,12.0,244.,12.0
1979-03-04 15:35:16.610 ,5,1,164.,12.0,0.,12.0,0.,12.0,244.,12.0
1979-03-04 15:35:28.610 ,4,1,136.,12.0,0.,12.0,0.,12.0,236.,12.0
1979-03-04 15:35:40.610 ,4,1,122.,12.0,0.,12.0,0.,12.0,196.,12.0
1979-03-04 15:35:52.610 ,3,1,114.,12.0,0.,12.0,0.,12.0,176.,12.0
1979-03-04 15:36:04.610 ,3,1,84.,12.0,1.,12.0,0.,12.0,144.,12.0
1979-03-04 15:36:16.610 ,2,1,96.,12.0,0.,12.0,0.,12.0,132.,12.0
1979-03-04 15:36:28.610 ,2,1,70.,12.0,0.,12.0,0.,12.0,112.,12.0
1979-03-04 15:36:40.610 ,1,1,74.,12.0,0.,12.0,0.,12.0,114.,12.0
1979-03-04 15:36:52.610 ,1,1,74.,12.0,0.,12.0,0.,12.0,136.,12.0
1979-03-04 15:37:04.610 ,0,1,72.,12.0,0.,12.0,0.,12.0,156.,12.0
1979-03-04 15:37:16.610 ,0,1,92.,12.0,0.,12.0,0.,12.0,176.,12.0
1979-03-04 15:37:28.610 ,0,1,98.,12.0,0.,12.0,0.,12.0,152.,12.0
1979-03-04 15:37:40.610 ,0,1,114.,12.0,0.,12.0,0.,12.0,180.,12.0
1979-03-04 15:37:52.610 ,1,1,112.,12.0,0.,12.0,0.,12.0,160.,12.0
1979-03-04 15:38:04.610 ,1,1,94.,12.0,1.,12.0,0.,12.0,136.,12.0
1979-03-04 15:38:16.610 ,2,1,76.,12.0,0.,12.0,0.,12.0,156.,12.0
1979-03-04 15:38:28.610 ,2,1,88.,12.0,0.,12.0,0.,12.0,156.,12.0
1979-03-04 15:38:40.610 ,3,1,82.,12.0,0.,12.0,0.,12.0,148.,12.0
1979-03-04 15:38:52.610 ,3,1,104.,12.0,0.,12.0,0.,12.0,164.,12.0
1979-03-04 15:39:04.610 ,4,1,96.,12.0,0.,12.0,0.,12.0,164.,12.0
1979-03-04 15:39:16.610 ,4,1,144.,12.0,0.,12.0,0.,12.0,224.,12.0
1979-03-04 15:39:28.610 ,5,1,136.,12.0,0.,12.0,0.,12.0,212.,12.0
1979-03-04 15:39:40.610 ,5,1,140.,12.0,0.,12.0,0.,12.0,256.,12.0
1979-03-04 15:39:52.610 ,6,1,148.,12.0,0.,12.0,0.,12.0,244.,12.0
1979-03-04 15:40:04.610 ,6,1,136.,12.0,0.,12.0,0.,12.0,280.,12.0
1979-03-04 15:40:16.610 ,7,1,164.,12.0,0.,12.0,0.,12.0,296.,12.0
1979-03-04 15:40:28.610 ,7,1,14.,12.0,0.,12.0,0.,12.0,46.,12.0
1979-03-04 15:40:40.610 ,7,1,0.,12.0,0.,12.0,0.,12.0,0.,12.0
1979-03-04 15:40:52.610 ,7,1,0.,12.0,0.,12.0,0.,12.0,0.,12.0
1979-03-04 15:41:04.610 ,6,1,0.,12.0,0.,12.0,0.,12.0,0.,12.0
1979-03-04 15:41:16.610 ,6,1,128.,12.0,0.,12.0,0.,12.0,228.,12.0
1979-03-04 15:41:28.610 ,5,1,160.,12.0,0.,12.0,0.,12.0,280.,12.0
1979-03-04 15:41:40.610 ,5,1,160.,12.0,0.,12.0,0.,12.0,272.,12.0
1979-03-04 15:41:52.610 ,4,1,152.,12.0,0.,12.0,0.,12.0,272.,12.0
1979-03-04 15:42:04.610 ,4,1,140.,12.0,0.,12.0,0.,12.0,244.,12.0
1979-03-04 15:42:16.610 ,3,1,144.,12.0,0.,12.0,0.,12.0,232.,12.0
1979-03-04 15:42:28.610 ,3,1,106.,12.0,0.,12.0,0.,12.0,180.,12.0
1979-03-04 15:42:40.610 ,2,1,94.,12.0,0.,12.0,0.,12.0,172.,12.0
1979-03-04 15:42:52.610 ,2,1,74.,12.0,0.,12.0,0.,12.0,132.,12.0
1979-03-04 15:43:04.610 ,1,1,68.,12.0,0.,12.0,0.,12.0,168.,12.0
1979-03-04 15:43:16.610 ,1,1,66.,12.0,0.,12.0,0.,12.0,156.,12.0
1979-03-04 15:43:28.610 ,0,1,102.,12.0,0.,12.0,0.,12.0,148.,12.0
1979-03-04 15:43:40.610 ,0,1,90.,12.0,0.,12.0,0.,12.0,188.,12.0
1979-03-04 15:43:52.610 ,0,1,104.,12.0,0.,12.0,0.,12.0,192.,12.0
1979-03-04 15:44:04.610 ,0,1,108.,12.0,0.,12.0,0.,12.0,204.,12.0
1979-03-04 15:44:16.610 ,1,1,102.,12.0,0.,12.0,0.,12.0,212.,12.0
1979-03-04 15:44:28.610 ,1,1,64.,12.0,0.,12.0,0.,12.0,136.,12.0
1979-03-04 15:44:40.610 ,2,1,70.,12.0,0.,12.0,0.,12.0,156.,12.0
1979-03-04 15:44:52.610 ,2,1,80.,12.0,0.,12.0,0.,12.0,156.,12.0
1979-03-04 15:45:04.610 ,3,1,66.,12.0,0.,12.0,0.,12.0,126.,12.0
1979-03-04 15:45:16.610 ,3,1,96.,12.0,0.,12.0,0.,12.0,160.,12.0
1979-03-04 15:45:28.610 ,4,1,90.,12.0,0.,12.0,0.,12.0,160.,12.0
1979-03-04 15:45:40.610 ,4,1,144.,12.0,0.,12.0,0.,12.0,236.,12.0
1979-03-04 15:45:52.610 ,5,1,114.,12.0,0.,12.0,0.,12.0,280.,12.0
1979-03-04 15:46:04.610 ,5,1,152.,12.0,0.,12.0,0.,12.0,252.,12.0
1979-03-04 15:46:16.610 ,6,1,144.,12.0,1.,12.0,0.,12.0,264.,12.0
1979-03-04 15:46:28.610 ,6,1,172.,12.0,0.,12.0,0.,12.0,288.,12.0
1979-03-04 15:46:40.610 ,7,1,164.,12.0,0.,12.0,0.,12.0,288.,12.0
1979-03-04 15:46:52.610 ,7,1,22.,12.0,0.,12.0,0.,12.0,41.,12.0
1979-03-04 15:47:04.610 ,7,1,0.,12.0,0.,12.0,0.,12.0,0.,12.0
1979-03-04 15:47:16.610 ,7,1,0.,12.0,0.,12.0,0.,12.0,0.,12.0
1979-03-04 15:47:28.610 ,6,1,0.,12.0,0.,12.0,0.,12.0,0.,12.0
1979-03-04 15:47:40.610 ,6,1,126.,12.0,0.,12.0,0.,12.0,216.,12.0
1979-03-04 15:47:52.610 ,5,1,136.,12.0,0.,12.0,0.,12.0,280.,12.0
1979-03-04 15:48:04.610 ,5,1,132.,12.0,0.,12.0,0.,12.0,256.,12.0
1979-03-04 15:48:16.610 ,4,1,176.,12.0,0.,12.0,0.,12.0,280.,12.0
1979-03-04 15:48:28.610 ,4,1,106.,12.0,0.,12.0,0.,12.0,232.,12.0
1979-03-04 15:48:40.610 ,3,1,128.,12.0,0.,12.0,0.,12.0,200.,12.0
1979-03-04 15:48:52.610 ,3,1,94.,12.0,0.,12.0,0.,12.0,168.,12.0
1979-03-04 15:49:04.610 ,2,1,72.,12.0,0.,12.0,0.,12.0,172.,12.0
1979-03-04 15:49:16.610 ,2,1,74.,12.0,0.,12.0,0.,12.0,126.,12.0
1979-03-04 15:49:28.610 ,1,1,56.,12.0,0.,12.0,0.,12.0,140.,12.0
1979-03-04 15:49:40.610 ,1,1,86.,12.0,0.,12.0,0.,12.0,152.,12.0
1979-03-04 15:49:52.610 ,0,1,70.,12.0,0.,12.0,0.,12.0,144.,12.0
1979-03-04 15:50:04.610 ,0,1,84.,12.0,0.,12.0,0.,12.0,152.,12.0
1979-03-04 15:50:16.610 ,0,1,96.,12.0,0.,12.0,0.,12.0,176.,12.0
1979-03-04 15:50:28.610 ,0,1,98.,12.0,0.,12.0,0.,12.0,168.,12.0
1979-03-04 15:50:40.610 ,1,1,86.,12.0,0.,12.0,0.,12.0,168.,12.0
1979-03-04 15:50:52.610 ,1,1,64.,12.0,0.,12.0,0.,12.0,160.,12.0
1979-03-04 15:51:04.610 ,2,1,76.,12.0,0.,12.0,0.,12.0,160.,12.0
1979-03-04 15:51:16.610 ,2,1,66.,12.0,0.,12.0,0.,12.0,164.,12.0
1979-03-04 15:51:28.610 ,3,1,70.,12.0,0.,12.0,0.,12.0,160.,12.0
1979-03-04 15:51:40.610 ,3,1,94.,12.0,0.,12.0,0.,12.0,168.,12.0
1979-03-04 15:51:52.610 ,4,1,76.,12.0,0.,12.0,0.,12.0,160.,12.0
1979-03-04 15:52:04.610 ,4,1,108.,12.0,0.,12.0,0.,12.0,200.,12.0
1979-03-04 15:52:16.610 ,5,1,92.,12.0,0.,12.0,0.,12.0,176.,12.0
1979-03-04 15:52:28.610 ,5,1,128.,12.0,0.,12.0,0.,12.0,224.,12.0
1979-03-04 15:52:40.610 ,6,1,126.,12.0,0.,12.0,0.,12.0,244.,12.0
1979-03-04 15:52:52.610 ,6,1,156.,12.0,0.,12.0,0.,12.0,240.,12.0
1979-03-04 15:53:04.610 ,7,1,140.,12.0,0.,12.0,0.,12.0,232.,12.0
1979-03-04 15:53:16.610 ,7,1,12.,12.0,0.,12.0,0.,12.0,33.,12.0
1979-03-04 15:53:28.610 ,7,1,0.,12.0,0.,12.0,0.,12.0,0.,12.0
1979-03-04 15:53:40.610 ,7,1,0.,12.0,0.,12.0,0.,12.0,0.,12.0
1979-03-04 15:53:52.610 ,6,1,0.,12.0,0.,12.0,0.,12.0,0.,12.0
1979-03-04 15:54:04.610 ,6,1,106.,12.0,0.,12.0,0.,12.0,204.,12.0
1979-03-04 15:54:16.610 ,5,1,108.,12.0,0.,12.0,0.,12.0,232.,12.0
1979-03-04 15:54:28.610 ,5,1,144.,12.0,0.,12.0,0.,12.0,188.,12.0
1979-03-04 15:54:40.610 ,4,1,118.,12.0,0.,12.0,0.,12.0,232.,12.0
1979-03-04 15:54:52.610 ,4,1,116.,12.0,0.,12.0,0.,12.0,192.,12.0
1979-03-04 15:55:04.610 ,3,1,100.,12.0,0.,12.0,0.,12.0,156.,12.0
1979-03-04 15:55:16.610 ,3,1,72.,12.0,0.,12.0,0.,12.0,172.,12.0
1979-03-04 15:55:28.610 ,2,1,74.,12.0,0.,12.0,0.,12.0,140.,12.0
1979-03-04 15:55:40.610 ,2,1,64.,12.0,0.,12.0,0.,12.0,128.,12.0
1979-03-04 15:55:52.610 ,1,1,66.,12.0,0.,12.0,0.,12.0,132.,12.0
1979-03-04 15:56:04.610 ,1,1,74.,12.0,0.,12.0,0.,12.0,128.,12.0
1979-03-04 15:56:16.610 ,0,1,72.,12.0,0.,12.0,0.,12.0,122.,12.0
1979-03-04 15:56:28.610 ,0,1,63.,12.0,0.,12.0,0.,12.0,116.,12.0
1979-03-04 15:56:40.610 ,0,1,66.,12.0,0.,12.0,0.,12.0,112.,12.0
1979-03-04 15:56:52.610 ,0,1,84.,12.0,0.,12.0,0.,12.0,118.,12.0
1979-03-04 15:57:04.610 ,1,1,59.,12.0,0.,12.0,0.,12.0,106.,12.0
1979-03-04 15:57:16.610 ,1,1,40.,12.0,0.,12.0,0.,12.0,92.,12.0
1979-03-04 15:57:28.610 ,2,1,38.,12.0,0.,12.0,0.,12.0,114.,12.0
1979-03-04 15:57:40.610 ,2,1,39.,12.0,0.,12.0,0.,12.0,88.,12.0
1979-03-04 15:57:52.610 ,3,1,41.,12.0,0.,12.0,0.,12.0,94.,12.0
1979-03-04 15:58:04.610 ,3,1,38.,12.0,0.,12.0,0.,12.0,112.,12.0
1979-03-04 15:58:16.610 ,4,1,33.,12.0,0.,12.0,0.,12.0,78.,12.0
1979-03-04 15:58:28.610 ,4,1,45.,12.0,0.,12.0,0.,12.0,116.,12.0
1979-03-04 15:58:40.610 ,5,1,45.,12.0,0.,12.0,0.,12.0,96.,12.0
1979-03-04 15:58:52.610 ,5,1,56.,12.0,1.,12.0,0.,12.0,140.,12.0
1979-03-04 15:59:04.610 ,6,1,54.,12.0,0.,12.0,0.,12.0,132.,12.0
1979-03-04 15:59:16.610 ,6,1,76.,12.0,0.,12.0,0.,12.0,156.,12.0
1979-03-04 15:59:28.610 ,7,1,82.,12.0,0.,12.0,0.,12.0,152.,12.0
1979-03-04 15:59:40.610 ,7,1,9.,12.0,0.,12.0,0.,12.0,27.,12.0
1979-03-04 15:59:52.610 ,7,1,0.,12.0,0.,12.0,0.,12.0,0.,12.0
1979-03-04 16:00:04.610 ,7,1,0.,12.0,0.,12.0,0.,12.0,0.,12.0
1979-03-04 16:00:16.610 ,6,1,0.,12.0,0.,12.0,0.,12.0,0.,12.0
1979-03-04 16:00:28.610 ,6,1,88.,12.0,0.,12.0,0.,12.0,160.,12.0
1979-03-04 16:00:40.610 ,5,1,94.,12.0,0.,12.0,0.,12.0,188.,12.0
1979-03-04 16:00:52.610 ,5,1,94.,12.0,0.,12.0,0.,12.0,164.,12.0
1979-03-04 16:01:04.610 ,4,1,94.,12.0,0.,12.0,0.,12.0,148.,12.0
1979-03-04 16:01:16.610 ,4,1,110.,12.0,0.,12.0,0.,12.0,144.,12.0
1979-03-04 16:01:28.610 ,3,1,86.,12.0,0.,12.0,0.,12.0,118.,12.0
1979-03-04 16:01:40.610 ,3,1,49.,12.0,0.,12.0,0.,12.0,88.,12.0
1979-03-04 16:01:52.610 ,2,1,38.,12.0,0.,12.0,0.,12.0,66.,12.0
1979-03-04 16:02:04.610 ,2,1,34.,12.0,0.,12.0,0.,12.0,86.,12.0
1979-03-04 16:02:16.610 ,1,1,37.,12.0,0.,12.0,0.,12.0,68.,12.0
1979-03-04 16:02:28.610 ,1,1,56.,12.0,0.,12.0,0.,12.0,72.,12.0
1979-03-04 16:02:40.610 ,0,1,53.,12.0,0.,12.0,0.,12.0,100.,12.0
1979-03-04 16:02:52.610 ,0,1,66.,12.0,0.,12.0,0.,12.0,140.,12.0
1979-03-04 16:03:04.610 ,0,1,82.,12.0,0.,12.0,0.,12.0,156.,12.0
1979-03-04 16:03:16.610 ,0,1,100.,12.0,0.,12.0,0.,12.0,148.,12.0
1979-03-04 16:03:28.610 ,1,1,104.,12.0,0.,12.0,0.,12.0,164.,12.0
1979-03-04 16:03:40.610 ,1,1,82.,12.0,0.,12.0,0.,12.0,136.,12.0
1979-03-04 16:03:52.610 ,2,1,90.,12.0,0.,12.0,0.,12.0,140.,12.0
1979-03-04 16:04:04.610 ,2,1,63.,12.0,0.,12.0,0.,12.0,102.,12.0
1979-03-04 16:04:16.610 ,3,1,56.,12.0,0.,12.0,0.,12.0,120.,12.0
1979-03-04 16:04:28.610 ,3,1,64.,12.0,0.,12.0,0.,12.0,132.,12.0
1979-03-04 16:04:40.610 ,4,1,90.,12.0,0.,12.0,0.,12.0,124.,12.0
1979-03-04 16:04:52.610 ,4,1,144.,12.0,0.,12.0,0.,12.0,172.,12.0
1979-03-04 16:05:04.610 ,5,1,140.,12.0,0.,12.0,0.,12.0,188.,12.0
1979-03-04 16:05:16.610 ,5,1,152.,12.0,0.,12.0,0.,12.0,204.,12.0
1979-03-04 16:05:28.610 ,6,1,148.,12.0,0.,12.0,0.,12.0,208.,12.0
1979-03-04 16:05:40.610 ,6,1,148.,12.0,0.,12.0,0.,12.0,188.,12.0
1979-03-04 16:05:52.610 ,7,1,148.,12.0,0.,12.0,0.,12.0,176.,12.0
1979-03-04 16:06:04.610 ,7,1,17.,12.0,0.,12.0,0.,12.0,33.,12.0
1979-03-04 16:06:16.610 ,7,1,0.,12.0,0.,12.0,0.,12.0,0.,12.0
1979-03-04 16:06:28.610 ,7,1,0.,12.0,0.,12.0,0.,12.0,0.,12.0
1979-03-04 16:06:40.610 ,6,1,0.,12.0,0.,12.0,0.,12.0,0.,12.0
1979-03-04 16:06:52.610 ,6,1,106.,12.0,0.,12.0,0.,12.0,156.,12.0
1979-03-04 16:07:04.610 ,5,1,96.,12.0,0.,12.0,0.,12.0,180.,12.0
1979-03-04 16:07:16.610 ,5,1,104.,12.0,0.,12.0,0.,12.0,172.,12.0
1979-03-04 16:07:28.610 ,4,1,108.,12.0,0.,12.0,0.,12.0,168.,12.0
1979-03-04 16:07:40.610 ,4,1,92.,12.0,0.,12.0,0.,12.0,126.,12.0
1979-03-04 16:07:52.610 ,3,1,80.,12.0,0.,12.0,0.,12.0,148.,12.0
1979-03-04 16:08:04.610 ,3,1,70.,12.0,0.,12.0,0.,12.0,116.,12.0
1979-03-04 16:08:16.610 ,2,1,70.,12.0,0.,12.0,0.,12.0,116.,12.0
1979-03-04 16:08:28.610 ,2,1,45.,12.0,0.,12.0,0.,12.0,84.,12.0
1979-03-04 16:08:40.610 ,1,1,47.,12.0,0.,12.0,0.,12.0,104.,12.0
1979-03-04 16:08:52.610 ,1,1,62.,12.0,0.,12.0,0.,12.0,104.,12.0
1979-03-04 16:09:04.610 ,0,1,47.,12.0,0.,12.0,0.,12.0,96.,12.0
1979-03-04 16:09:16.610 ,0,1,62.,12.0,0.,12.0,0.,12.0,122.,12.0
1979-03-04 16:09:28.610 ,0,1,70.,12.0,0.,12.0,0.,12.0,110.,12.0
1979-03-04 16:09:40.610 ,0,1,82.,12.0,0.,12.0,0.,12.0,144.,12.0
1979-03-04 16:09:52.610 ,1,1,64.,12.0,0.,12.0,0.,12.0,128.,12.0
1979-03-04 16:10:04.610 ,1,1,64.,12.0,0.,12.0,0.,12.0,108.,12.0
1979-03-04 16:10:16.610 ,2,1,55.,12.0,0.,12.0,0.,12.0,92.,12.0
1979-03-04 16:10:28.610 ,2,1,55.,12.0,0.,12.0,0.,12.0,86.,12.0
1979-03-04 16:10:40.610 ,0,0,64.,12.0,0.,12.0,0.,12.0,102.,12.0
1979-03-04 16:10:52.610 ,0,0,51.,12.0,0.,12.0,0.,12.0,108.,12.0
1979-03-04 16:11:13.010 ,0,0,,0,,0,,0,,0
1979-03-04 16:11:25.010 ,0,0,96.,12.0,0.,12.0,0.,12.0,156.,12.0
1979-03-04 16:11:28.610 ,5,1,112.,12.0,0.,12.0,0.,12.0,176.,12.0
1979-03-04 16:11:40.610 ,5,1,156.,12.0,0.,12.0,0.,12.0,232.,12.0
1979-03-04 16:11:52.610 ,6,1,176.,12.0,0.,12.0,0.,12.0,252.,12.0
1979-03-04 16:12:04.610 ,6,1,152.,12.0,0.,12.0,0.,12.0,240.,12.0
1979-03-04 16:12:16.610 ,7,1,140.,12.0,0.,12.0,0.,12.0,220.,12.0
1979-03-04 16:12:28.610 ,7,1,14.,12.0,0.,12.0,0.,12.0,26.,12.0
1979-03-04 16:12:40.610 ,7,1,0.,12.0,0.,12.0,0.,12.0,0.,12.0
1979-03-04 16:12:52.610 ,7,1,0.,12.0,0.,12.0,0.,12.0,0.,12.0
1979-03-04 16:13:04.610 ,6,1,0.,12.0,0.,12.0,0.,12.0,0.,12.0
1979-03-04 16:13:16.610 ,6,1,112.,12.0,0.,12.0,0.,12.0,188.,12.0
1979-03-04 16:13:28.610 ,5,1,144.,12.0,0.,12.0,0.,12.0,212.,12.0
1979-03-04 16:13:40.610 ,5,1,160.,12.0,0.,12.0,0.,12.0,248.,12.0
1979-03-04 16:13:52.610 ,4,1,140.,12.0,1.,12.0,0.,12.0,208.,12.0
1979-03-04 16:14:04.610 ,4,1,104.,12.0,0.,12.0,0.,12.0,172.,12.0
1979-03-04 16:14:16.610 ,3,1,118.,12.0,0.,12.0,0.,12.0,160.,12.0
1979-03-04 16:14:28.610 ,3,1,90.,12.0,0.,12.0,0.,12.0,140.,12.0
1979-03-04 16:14:40.610 ,2,1,70.,12.0,0.,12.0,0.,12.0,132.,12.0
1979-03-04 16:14:52.610 ,2,1,59.,12.0,0.,12.0,0.,12.0,102.,12.0
1979-03-04 16:15:04.610 ,1,1,55.,12.0,0.,12.0,0.,12.0,94.,12.0
1979-03-04 16:15:16.610 ,1,1,66.,12.0,0.,12.0,0.,12.0,136.,12.0
1979-03-04 16:15:28.610 ,0,1,59.,12.0,0.,12.0,0.,12.0,98.,12.0
1979-03-04 16:15:40.610 ,0,1,62.,12.0,0.,12.0,0.,12.0,118.,12.0
1979-03-04 16:15:52.610 ,0,1,62.,12.0,0.,12.0,0.,12.0,124.,12.0
1979-03-04 16:16:04.610 ,0,1,70.,12.0,0.,12.0,0.,12.0,96.,12.0
1979-03-04 16:16:16.610 ,1,1,60.,12.0,0.,12.0,0.,12.0,112.,12.0
1979-03-04 16:16:28.610 ,1,1,59.,12.0,0.,12.0,0.,12.0,98.,12.0
1979-03-04 16:16:40.610 ,2,1,47.,12.0,0.,12.0,0.,12.0,92.,12.0
1979-03-04 16:16:52.610 ,2,1,49.,12.0,0.,12.0,0.,12.0,88.,12.0
1979-03-04 16:17:04.610 ,3,1,52.,12.0,0.,12.0,0.,12.0,80.,12.0
1979-03-04 16:17:16.610 ,3,1,63.,12.0,0.,12.0,0.,12.0,96.,12.0
1979-03-04 16:17:28.610 ,4,1,72.,12.0,0.,12.0,0.,12.0,106.,12.0
1979-03-04 16:17:40.610 ,4,1,76.,12.0,0.,12.0,0.,12.0,132.,12.0
1979-03-04 16:17:52.610 ,5,1,82.,12.0,0.,12.0,0.,12.0,144.,12.0
1979-03-04 16:18:04.610 ,5,1,86.,12.0,0.,12.0,0.,12.0,152.,12.0
1979-03-04 16:18:16.610 ,6,1,92.,12.0,0.,12.0,0.,12.0,172.,12.0
1979-03-04 16:18:28.610 ,6,1,128.,12.0,0.,12.0,0.,12.0,184.,12.0
1979-03-04 16:18:40.610 ,7,1,104.,12.0,0.,12.0,0.,12.0,220.,12.0
1979-03-04 16:18:52.610 ,7,1,14.,12.0,0.,12.0,0.,12.0,25.,12.0
1979-03-04 16:19:04.610 ,7,1,0.,12.0,0.,12.0,0.,12.0,0.,12.0
1979-03-04 16:19:16.610 ,7,1,0.,12.0,0.,12.0,0.,12.0,0.,12.0
1979-03-04 16:19:28.610 ,6,1,0.,12.0,0.,12.0,0.,12.0,0.,12.0
1979-03-04 16:19:40.610 ,6,1,110.,12.0,0.,12.0,0.,12.0,184.,12.0
1979-03-04 16:19:52.610 ,5,1,132.,12.0,0.,12.0,0.,12.0,204.,12.0
1979-03-04 16:20:04.610 ,5,1,148.,12.0,0.,12.0,0.,12.0,208.,12.0
1979-03-04 16:20:16.610 ,4,1,126.,12.0,0.,12.0,0.,12.0,184.,12.0
1979-03-04 16:20:28.610 ,4,1,112.,12.0,0.,12.0,0.,12.0,144.,12.0
1979-03-04 16:20:40.610 ,3,1,104.,12.0,1.,12.0,0.,12.0,132.,12.0
1979-03-04 16:20:52.610 ,3,1,90.,12.0,0.,12.0,0.,12.0,114.,12.0
1979-03-04 16:21:04.610 ,2,1,70.,12.0,0.,12.0,0.,12.0,110.,12.0
1979-03-04 16:21:16.610 ,2,1,47.,12.0,0.,12.0,0.,12.0,102.,12.0
1979-03-04 16:21:28.610 ,1,1,43.,12.0,0.,12.0,0.,12.0,80.,12.0
1979-03-04 16:21:40.610 ,1,1,57.,12.0,0.,12.0,0.,12.0,86.,12.0
1979-03-04 16:21:52.610 ,0,1,59.,12.0,0.,12.0,0.,12.0,102.,12.0
1979-03-04 16:22:04.610 ,0,1,86.,12.0,0.,12.0,0.,12.0,122.,12.0
1979-03-04 16:22:16.610 ,0,1,80.,12.0,0.,12.0,0.,12.0,96.,12.0
1979-03-04 16:22:28.610 ,0,1,72.,12.0,0.,12.0,0.,12.0,112.,12.0
1979-03-04 16:22:40.610 ,0,0,,0,,0,,0,,0
1979-03-04 16:22:52.610 ,0,0,,0,,0,,0,,0
1979-03-04 16:25:58.610 ,0,0,,0,,0,,0,,0
1979-03-04 16:26:10.610 ,0,0,80.,12.0,0.,12.0,0.,12.0,156.,12.0
1979-03-04 16:26:16.610 ,5,1,114.,12.0,0.,12.0,0.,12.0,188.,12.0
1979-03-04 16:26:28.610 ,5,1,118.,12.0,0.,12.0,0.,12.0,180.,12.0
1979-03-04 16:26:40.610 ,4,1,124.,12.0,0.,12.0,0.,12.0,172.,12.0
1979-03-04 16:26:52.610 ,4,1,110.,12.0,0.,12.0,0.,12.0,164.,12.0
1979-03-04 16:27:04.610 ,3,1,102.,12.0,0.,12.0,0.,12.0,136.,12.0
1979-03-04 16:27:16.610 ,3,1,62.,12.0,0.,12.0,0.,12.0,112.,12.0
1979-03-04 16:27:28.610 ,2,1,68.,12.0,0.,12.0,0.,12.0,98.,12.0
1979-03-04 16:27:40.610 ,2,1,51.,12.0,0.,12.0,0.,12.0,78.,12.0
1979-03-04 16:27:52.610 ,1,1,48.,12.0,0.,12.0,0.,12.0,96.,12.0
1979-03-04 16:28:04.610 ,1,1,48.,12.0,0.,12.0,0.,12.0,84.,12.0
1979-03-04 16:28:16.610 ,0,1,55.,12.0,0.,12.0,0.,12.0,80.,12.0
1979-03-04 16:28:28.610 ,0,1,74.,12.0,0.,12.0,0.,12.0,92.,12.0
1979-03-04 16:28:40.610 ,0,1,60.,12.0,0.,12.0,0.,12.0,86.,12.0
1979-03-04 16:28:52.610 ,0,1,66.,12.0,0.,12.0,0.,12.0,94.,12.0
1979-03-04 16:29:04.610 ,1,1,84.,12.0,0.,12.0,0.,12.0,112.,12.0
1979-03-04 16:29:16.610 ,1,1,49.,12.0,0.,12.0,0.,12.0,82.,12.0
1979-03-04 16:29:28.610 ,2,1,47.,12.0,0.,12.0,0.,12.0,72.,12.0
1979-03-04 16:29:40.610 ,2,1,45.,12.0,0.,12.0,0.,12.0,56.,12.0
1979-03-04 16:29:52.610 ,3,1,39.,12.0,0.,12.0,0.,12.0,70.,12.0
1979-03-04 16:30:04.610 ,3,1,56.,12.0,0.,12.0,0.,12.0,70.,12.0